[[{"header":{"parameterUnit":"m.s-1","parameterCategory":2,"la1":30.2991,"la2":30.254,"lo1":-89.0895,"lo2":-89.0444,"dy":0.0017,"dx":0.0017,"nx":28,"ny":28,"refTime":"2026-02-27T03:00:00:Z","depth":"0","parameterNumber":2,"parameterNumberName":"U-component_of_CURRENTS"},"data":[0,0,0,0,0,0,0,0,0,0,0,0,0,0,0,0,0,0,0,0,0,0,0,0,0,0,0,0,0,0,0,0,0,0,0,0,0,0,0,0,0,0,0,0,0,0,0,0,0,0,0,0,0,0,0,0,0,0,0.366,0.3661,0,0.3713,0.3713,0.3714,0.3689,0.3688,0.3687,0.3687,0.3693,0.3694,0.3695,0,0,0,0,0,0,0,0,0,0,0,0,0,0.3533,0.3535,0.3659,0.3661,0.3662,0.3713,0.3713,0.3714,0.3689,0.3688,0.3687,0.3686,0.3692,0.3694,0.3695,0,0,0,0,0,0,0,0,0,0,0,0,0,0.3583,0.3536,0.3659,0.3659,0.366,0.3713,0.3713,0.3714,0.369,0.3688,0.3687,0.3686,0.3692,0.3694,0.3695,0.3733,0,0,0.37,0.37,0,0,0,0,0,0,0,0,0.358,0.3587,0.3658,0.3659,0.366,0.3697,0.3671,0.3719,0.369,0.3674,0.3686,0.3685,0.3694,0.3695,0.3703,0.3733,0.3733,0.37,0.3701,0.3702,0.3702,0,0,0,0,0,0,0,0.3577,0.3585,0.3676,0.3659,0.3661,0.3655,0.366,0.368,0.3687,0.3675,0.3674,0.3688,0.3693,0.3701,0.3703,0.3733,0.37,0.3701,0.3702,0.3703,0.3787,0.3788,0,0,0,0,0,0,0.3581,0.3582,0.3675,0.3678,0.3621,0.3659,0.3665,0.3683,0.3687,0.3688,0.3689,0.3687,0.3699,0.3701,0.3703,0.3789,0.3702,0.3703,0.3704,0.3785,0.3787,0.3788,0,0,0,0,0,0,0.3578,0.3589,0.3673,0.3634,0.3645,0.3663,0.3684,0.3685,0.3698,0.3699,0.3698,0.3702,0.3698,0.37,0.3722,0.3787,0.3704,0.3705,0.3784,0.3786,0.3788,0.3936,0,0,0,0,0,0,0.3575,0.3588,0.3603,0.3635,0.3647,0.3719,0.3686,0.3687,0.3711,0.3708,0.3711,0.3709,0.3697,0.372,0.3724,0.3788,0.3706,0.3782,0.3785,0.3787,0.3929,0.3943,0.3954,0,0,0,0,0,0.357,0.3603,0.3603,0.3614,0.3667,0.3721,0.3727,0.3731,0.3713,0.3734,0.3724,0.371,0.3738,0.3723,0.3727,0.3793,0.3781,0.3784,0.3787,0.3924,0.394,0.3954,0,0,0,0,0,0,0.3561,0.3605,0.3605,0.3651,0.3688,0.3719,0.3744,0.3743,0.3753,0.3748,0.373,0.373,0.3784,0.3753,0.3736,0.3818,0.3757,0.376,0.3859,0.3874,0.3887,0.3922,0.3708,0,0,0,0,0,0.3567,0.3599,0.3641,0.3678,0.3701,0.3722,0.3743,0.3751,0.3767,0.377,0.3774,0.3773,0.3801,0.3805,0.3823,0.3863,0.3903,0.3902,0.3915,0.3926,0.3954,0.4069,0.4097,0.3798,0.3798,0.3798,0,0,0.3577,0.3604,0.3623,0.3678,0.3705,0.3764,0.3731,0.3779,0.3828,0.3771,0.3831,0.383,0.3822,0.3878,0.3897,0.3858,0.4033,0.3929,0.3939,0.3962,0.4076,0.4106,0.4132,0.38,0.3799,0.3799,0,0,0.3615,0.3637,0.3677,0.3721,0.3773,0.3798,0.3816,0.3859,0.3876,0.3924,0.3911,0.3942,0.3959,0.3986,0.3994,0.408,0.4107,0.4076,0.4164,0.4276,0.4303,0.4327,0.4437,0.447,0.4069,0.4069,0.4069,0,0.362,0.3689,0.3699,0.3758,0.3815,0.3819,0.3896,0.3922,0.3965,0.4004,0.3955,0.4037,0.4021,0.4122,0.414,0.4118,0.4182,0.4115,0.4299,0.4324,0.4346,0.4452,0.4487,0.4077,0.4076,0.4075,0.4074,0,0.3694,0.3759,0.3795,0.3874,0.3928,0.4,0.4049,0.4104,0.4115,0.4137,0.423,0.4212,0.4261,0.4259,0.4222,0.4374,0.4371,0.432,0.4276,0.4387,0.4489,0.4523,0.4087,0.4085,0.4083,0.4081,0,0,0.3686,0.3821,0.3833,0.3916,0.4006,0.4071,0.4167,0.4271,0.4365,0.4365,0.4481,0.4497,0.4484,0.4492,0.4467,0.4537,0.4737,0.4495,0.4498,0.463,0.5012,0.4886,0.491,0.4732,0.4738,0.4743,0.5029,0,0.3748,0.389,0.3937,0.4097,0.4196,0.4258,0.4359,0.4445,0.4502,0.4607,0.4597,0.4677,0.4573,0.4611,0.4671,0.4726,0.4829,0.4665,0.4861,0.4867,0.4764,0.4945,0.4671,0.4891,0.5061,0.5067,0.5071,0,0.3812,0.3911,0.4071,0.4265,0.4311,0.4398,0.4599,0.469,0.4814,0.4851,0.4914,0.4908,0.5002,0.4888,0.5068,0.4975,0.502,0.5044,0.5055,0.4911,0.4803,0.48,0.4945,0.477,0.5122,0.5118,0.5114,0,0.3844,0.4016,0.4156,0.4221,0.4416,0.4512,0.4614,0.4765,0.4863,0.5014,0.5086,0.518,0.5233,0.5311,0.5303,0.5232,0.5499,0.5406,0.5352,0.5344,0.5133,0.5095,0.5149,0.5584,0.5584,0.5583,0.5582,0,0.3928,0.4058,0.4185,0.4281,0.4459,0.4572,0.4761,0.4881,0.5035,0.5156,0.5204,0.5312,0.5344,0.5449,0.5445,0.5504,0.5625,0.5433,0.5431,0.5172,0.5136,0.4984,0.4924,0.5594,0.5591,0.5589,0.5587,0,0.4005,0.4078,0.4258,0.4438,0.4489,0.4627,0.4816,0.4953,0.5096,0.5264,0.531,0.5463,0.56,0.5626,0.5771,0.5681,0.5583,0.574,0.5424,0.5377,0.5098,0.5056,0.5013,0.4877,0.5758,0.5757,0.5756,0,0.4103,0.418,0.4338,0.4419,0.4513,0.4684,0.4796,0.4959,0.5075,0.5338,0.5412,0.5605,0.5693,0.5854,0.575,0.5776,0.5591,0.5532,0.5323,0.5104,0.5059,0.4879,0.4755,0.5128,0.5122,0.5117,0.5113,0,0.4272,0.4278,0.439,0.4513,0.463,0.4746,0.4899,0.4983,0.5172,0.5288,0.5473,0.5585,0.5716,0.5589,0.559,0.5554,0.523,0.5431,0.53,0.4671,0.4389,0.4245,0.493,0.507,0.5074,0.5077,0.508,0.5081,0.4375,0.4436,0.45,0.4617,0.4713,0.4775,0.4808,0.4924,0.5035,0.5109,0.535,0.5347,0.535,0.5296,0.5256,0.4919,0.4972,0.4694,0.4706,0.4577,0.4293,0.488,0.4931,0.4935,0.4938,0.494,0.4943,0,0.4481,0.4504,0.4607,0.4672,0.4704,0.4753,0.4838,0.4785,0.4791,0.4865,0.4922,0.4798,0.4695,0.4648,0.439,0.4188,0.4012,0.4061,0.3743,0.3692,0.4302,0.4111,0.3866,0.3866,0.3866,0.3867,0.3867,0.3867,0.4539,0.4595,0.4591,0.4613,0.4632,0.4556,0.4543,0.4457,0.4428,0.4232,0.4054,0.4042,0.4092,0.4009,0.3738,0.3645,0.3376,0.3207,0.3281,0.3681,0.3739,0.3793,0.3597,0.3249,0.3248,0.2445,0.2439,0.2434]},{"header":{"parameterUnit":"m.s-1","parameterCategory":2,"la1":30.2991,"la2":30.254,"lo1":-89.0895,"lo2":-89.0444,"dy":0.0017,"dx":0.0017,"nx":28,"ny":28,"refTime":"2026-02-27T03:00:00:Z","depth":"0","parameterNumber":3,"parameterNumberName":"V-component_of_CURRENTS"},"data":[0,0,0,0,0,0,0,0,0,0,0,0,0,0,0,0,0,0,0,0,0,0,0,0,0,0,0,0,0,0,0,0,0,0,0,0,0,0,0,0,0,0,0,0,0,0,0,0,0,0,0,0,0,0,0,0,0,0,0.0087,0.0087,0,0.0058,0.0058,0.0057,0.0025,0.0025,0.0025,0.0025,-0.0041,-0.0042,-0.0044,0,0,0,0,0,0,0,0,0,0,0,0,0,0.0071,0.0072,0.0087,0.0087,0.0087,0.0058,0.0058,0.0057,0.0026,0.0025,0.0025,0.0025,-0.0041,-0.0042,-0.0044,0,0,0,0,0,0,0,0,0,0,0,0,0,0.0062,0.0072,0.0087,0.0069,0.0067,0.0058,0.0058,0.0057,0.0026,0.0025,0.0025,0.0024,-0.004,-0.0042,-0.0044,-0.005,0,0,-0.0051,-0.0052,0,0,0,0,0,0,0,0,0.0063,0.0062,0.0072,0.007,0.0068,0.0047,0.0028,0.002,0.0026,0.0039,0.0025,0.0024,-0.0013,-0.0018,-0.0025,-0.0053,-0.0056,-0.0051,-0.0053,-0.0054,-0.0054,0,0,0,0,0,0,0,0.0063,0.0063,0.0074,0.0072,0.007,0.0048,0.0046,0.0026,0.0013,0.0038,0.0036,0.0036,-0.0015,-0.0022,-0.0027,-0.0057,-0.0051,-0.0053,-0.0055,-0.0055,-0.008,-0.008,0,0,0,0,0,0,0.0074,0.0064,0.0075,0.0073,0.0067,0.0048,0.0047,0.0052,0.0014,0.0009,0.0037,0.0035,-0.0018,-0.0024,-0.0029,-0.0002,-0.0054,-0.0056,-0.0057,-0.0081,-0.008,-0.008,0,0,0,0,0,0,0.0074,0.0075,0.0076,0.0069,0.0068,0.005,0.0056,0.0052,0.0046,0.0014,0.0007,0.0036,-0.0019,-0.0026,-0.004,-0.0007,-0.0057,-0.0059,-0.0082,-0.0081,-0.008,0.0028,0,0,0,0,0,0,0.0073,0.0076,0.0081,0.007,0.0069,0.0084,0.0057,0.0052,0.0048,0.0045,0.0011,0.0004,-0.002,-0.0036,-0.0042,-0.0011,-0.006,-0.0083,-0.0081,-0.008,0.0023,0.0032,0.004,0,0,0,0,0,0.0073,0.0092,0.0081,0.0082,0.0077,0.0085,0.0083,0.0066,0.0049,0.0057,0.0028,0.0005,-0.0032,-0.0038,-0.0045,-0.0013,-0.0083,-0.0082,-0.008,0.002,0.0031,0.004,0,0,0,0,0,0,0.009,0.009,0.0078,0.0096,0.0094,0.0081,0.0087,0.0071,0.0055,0.0048,0.0011,0.0004,0.0005,-0.0025,-0.003,-0.0019,-0.0061,-0.006,0.0018,0.0028,0.0036,0.0069,-0.0062,0,0,0,0,0,0.0096,0.0109,0.0103,0.0117,0.0119,0.0101,0.0099,0.0088,0.0074,0.0066,0.0042,0.0016,0.0006,-0.0001,-0.002,-0.0016,-0.0019,-0.0002,0.0007,0.0014,0.0035,0.0047,0.0059,-0.0075,-0.0075,-0.0075,0,0,0.0106,0.0108,0.0115,0.0121,0.0116,0.0146,0.0099,0.0106,0.013,0.0061,0.008,0.0043,0.0011,0.0021,0.0019,0.0001,0.0054,0.0016,0.0023,0.004,0.005,0.0063,0.0075,-0.0074,-0.0074,-0.0074,0,0,0.0154,0.0137,0.0172,0.0178,0.018,0.0172,0.0178,0.0166,0.016,0.0164,0.0128,0.0113,0.0087,0.0083,0.0075,0.0115,0.0096,0.0101,0.0176,0.0188,0.02,0.0211,0.0246,0.0259,0.0109,0.0109,0.0109,0,0.0169,0.0214,0.0183,0.0224,0.0241,0.0193,0.0242,0.0234,0.0219,0.0221,0.0184,0.0161,0.0126,0.0159,0.0169,0.014,0.0145,0.0145,0.0203,0.0213,0.0221,0.0255,0.0268,0.0115,0.0114,0.0113,0.0113,0,0.0254,0.0285,0.0307,0.0346,0.0354,0.0385,0.0373,0.0373,0.0347,0.0334,0.0339,0.0289,0.028,0.0264,0.0228,0.0276,0.0262,0.0212,0.0186,0.0242,0.0273,0.0285,0.0122,0.012,0.0119,0.0117,0,0,0.0306,0.0361,0.0369,0.0406,0.0423,0.044,0.0475,0.0496,0.0521,0.0484,0.0521,0.0486,0.0442,0.043,0.0383,0.0386,0.0449,0.0331,0.0329,0.0384,0.05,0.0453,0.046,0.0408,0.041,0.0411,0.0506,0,0.0389,0.0487,0.0492,0.058,0.0627,0.0601,0.0641,0.0641,0.0622,0.0637,0.0585,0.0593,0.0513,0.0507,0.0501,0.0464,0.048,0.043,0.0423,0.0424,0.0387,0.0471,0.0437,0.0515,0.0517,0.0519,0.052,0,0.0478,0.0532,0.0634,0.0697,0.0715,0.0758,0.0796,0.0825,0.0823,0.0805,0.0794,0.0743,0.0757,0.066,0.066,0.0632,0.0582,0.0543,0.0544,0.0472,0.0397,0.0452,0.0535,0.033,0.0537,0.0535,0.0534,0,0.0529,0.0628,0.0712,0.0737,0.08,0.0839,0.0868,0.0877,0.0907,0.0916,0.0936,0.0916,0.0925,0.0866,0.0782,0.0728,0.0775,0.0688,0.0607,0.0604,0.0561,0.055,0.0458,0.0689,0.0689,0.0688,0.0688,0,0.0614,0.0679,0.0745,0.0791,0.0884,0.0901,0.0985,0.0997,0.1033,0.1094,0.103,0.1089,0.0973,0.0968,0.0864,0.0799,0.0849,0.0656,0.0632,0.0597,0.0588,0.0392,0.0269,0.0692,0.0691,0.0691,0.069,0,0.065,0.0703,0.0793,0.0877,0.0911,0.0968,0.106,0.1115,0.1143,0.1226,0.1241,0.125,0.1267,0.1152,0.1083,0.0925,0.0734,0.0802,0.0781,0.0751,0.0437,0.0322,0.0236,0.0151,0.0733,0.0732,0.0732,0,0.0681,0.0731,0.0836,0.0898,0.0944,0.1035,0.1103,0.1158,0.122,0.1341,0.1394,0.1442,0.152,0.1412,0.1157,0.1,0.0782,0.0786,0.0653,0.0446,0.0302,0.0222,0.015,0.0656,0.0655,0.0655,0.0654,0,0.0721,0.0747,0.0815,0.094,0.1031,0.1135,0.1239,0.1311,0.1396,0.1518,0.1695,0.1793,0.1682,0.1531,0.1248,0.108,0.0612,0.0759,0.0554,0.0252,0.0154,0.0051,0.0579,0.0646,0.0647,0.0648,0.0648,0.0648,0.0732,0.0777,0.0867,0.0979,0.1091,0.1231,0.1335,0.1482,0.1655,0.1892,0.1943,0.2175,0.1823,0.1468,0.1186,0.0567,0.0592,0.0354,0.0247,0.0198,0.0057,0.0576,0.0591,0.0591,0.0592,0.0592,0.0592,0,0.0763,0.0815,0.091,0.1057,0.1179,0.124,0.1424,0.1567,0.1823,0.212,0.2342,0.2321,0.1881,0.1372,0.0541,0.0124,-0.0034,-0.0111,-0.0245,-0.0284,0.0193,0.0126,0.0029,0.0029,0.0029,0.0029,0.0029,0.003,0.0787,0.0868,0.091,0.11,0.1211,0.1396,0.1514,0.1775,0.2024,0.2448,0.2653,0.2768,0.2299,0.082,-0.0152,-0.0368,-0.0664,-0.0723,-0.0837,-0.0557,-0.0522,-0.0489,-0.0582,-0.0826,-0.0827,-0.1275,-0.128,-0.1284]}],[{"header":{"parameterUnit":"m.s-1","parameterCategory":2,"la1":30.2991,"la2":30.254,"lo1":-89.0895,"lo2":-89.0444,"dy":0.0017,"dx":0.0017,"nx":28,"ny":28,"refTime":"2026-02-27T03:00:00:Z","depth":"2","parameterNumber":2,"parameterNumberName":"U-component_of_CURRENTS"},"data":[0,0,0,0,0,0,0,0,0,0,0,0,0,0,0,0,0,0,0,0,0,0,0,0,0,0,0,0,0,0,0,0,0,0,0,0,0,0,0,0,0,0,0,0,0,0,0,0,0,0,0,0,0,0,0,0,0,0,0.26,0.2601,0,0.2652,0.2653,0.2653,0.2679,0.2679,0.268,0.268,0.2712,0.2712,0.2713,0,0,0,0,0,0,0,0,0,0,0,0,0,0.2518,0.252,0.26,0.2601,0.2602,0.2652,0.2653,0.2653,0.2679,0.2679,0.268,0.268,0.2712,0.2712,0.2713,0,0,0,0,0,0,0,0,0,0,0,0,0,0.2558,0.252,0.26,0.2623,0.2626,0.2652,0.2653,0.2653,0.2679,0.268,0.268,0.268,0.2711,0.2712,0.2713,0.2711,0,0,0.2716,0.2716,0,0,0,0,0,0,0,0,0.2556,0.2561,0.2619,0.2622,0.2625,0.2662,0.2636,0.2673,0.2679,0.2656,0.268,0.268,0.2695,0.2697,0.2702,0.2712,0.2714,0.2716,0.2717,0.2717,0.2717,0,0,0,0,0,0,0,0.2553,0.2558,0.2618,0.262,0.2623,0.2629,0.2635,0.2643,0.267,0.2658,0.2661,0.2671,0.2696,0.2701,0.2703,0.2714,0.2716,0.2717,0.2717,0.2718,0.2803,0.2804,0,0,0,0,0,0,0.2552,0.2556,0.2617,0.262,0.2594,0.2631,0.2637,0.2647,0.2671,0.2675,0.267,0.2672,0.27,0.2702,0.2705,0.2788,0.2717,0.2718,0.2718,0.2801,0.2803,0.2805,0,0,0,0,0,0,0.255,0.2557,0.2614,0.2591,0.2599,0.2632,0.2643,0.2648,0.2683,0.2681,0.2685,0.2703,0.27,0.2703,0.2737,0.2786,0.2718,0.2719,0.2799,0.2802,0.2804,0.2901,0,0,0,0,0,0,0.2547,0.2556,0.257,0.2591,0.2601,0.265,0.2643,0.2649,0.2688,0.2691,0.271,0.2711,0.2701,0.2736,0.2738,0.2787,0.272,0.2797,0.28,0.2803,0.2896,0.2907,0.2916,0,0,0,0,0,0.2544,0.2565,0.257,0.2578,0.2617,0.2651,0.2657,0.2679,0.269,0.271,0.2724,0.2712,0.2758,0.2738,0.274,0.279,0.2795,0.2799,0.2803,0.2891,0.2905,0.2916,0,0,0,0,0,0,0.2547,0.2571,0.2577,0.2606,0.2635,0.2657,0.2682,0.2697,0.2725,0.2728,0.273,0.2733,0.2779,0.2769,0.2747,0.2823,0.2776,0.2781,0.2843,0.2855,0.2865,0.2861,0.272,0,0,0,0,0,0.2551,0.2567,0.2595,0.2621,0.2638,0.2665,0.2685,0.2697,0.2722,0.2736,0.2746,0.2762,0.2792,0.2812,0.2818,0.2862,0.2875,0.2896,0.2906,0.2915,0.2913,0.2988,0.3005,0.2818,0.2818,0.2818,0,0,0.2558,0.2575,0.2585,0.2622,0.2645,0.269,0.2679,0.2714,0.2755,0.2733,0.2788,0.2792,0.2809,0.2855,0.2877,0.2859,0.2979,0.292,0.2927,0.292,0.2994,0.3012,0.3028,0.282,0.282,0.2819,0,0,0.2577,0.2599,0.2618,0.2652,0.2689,0.2713,0.2733,0.2763,0.2783,0.2827,0.283,0.2867,0.2898,0.2927,0.2948,0.302,0.3024,0.3025,0.3085,0.3159,0.3175,0.319,0.3248,0.3267,0.3039,0.304,0.304,0,0.2582,0.2617,0.2632,0.2672,0.27,0.2735,0.2771,0.2812,0.2847,0.2866,0.2854,0.2922,0.2938,0.3019,0.3048,0.3046,0.3079,0.3041,0.3174,0.3189,0.3202,0.3258,0.3277,0.3045,0.3044,0.3044,0.3043,0,0.2628,0.2659,0.2681,0.274,0.2772,0.2812,0.2862,0.2898,0.2923,0.2956,0.3014,0.303,0.3074,0.3095,0.3098,0.3203,0.3195,0.3175,0.3146,0.3227,0.328,0.3299,0.3052,0.305,0.3049,0.3048,0,0,0.2619,0.2692,0.2702,0.272,0.2806,0.2826,0.2909,0.2974,0.3021,0.3066,0.3131,0.3189,0.3193,0.3216,0.3228,0.3291,0.3426,0.3281,0.3282,0.3343,0.3591,0.3487,0.3497,0.3438,0.3441,0.3444,0.3598,0,0.2647,0.2705,0.2743,0.2807,0.2835,0.289,0.2966,0.303,0.3072,0.315,0.3203,0.3269,0.3249,0.3276,0.3344,0.3399,0.3476,0.3385,0.3498,0.3501,0.3403,0.3516,0.3223,0.3327,0.3615,0.3618,0.3621,0,0.2679,0.2706,0.2761,0.2811,0.2832,0.2884,0.2964,0.3037,0.3166,0.3202,0.328,0.3325,0.3447,0.3409,0.356,0.3506,0.3562,0.3596,0.3602,0.3479,0.3431,0.3289,0.3349,0.3651,0.3649,0.3647,0.3645,0,0.2645,0.2711,0.2743,0.2772,0.2859,0.2882,0.294,0.3045,0.31,0.3249,0.3296,0.343,0.3518,0.3597,0.368,0.364,0.3836,0.379,0.3749,0.3742,0.3497,0.3462,0.3908,0.3908,0.3908,0.3907,0.3907,0,0.2655,0.2679,0.2725,0.2748,0.2784,0.2852,0.2913,0.299,0.3113,0.3204,0.3322,0.3393,0.3574,0.3695,0.3738,0.3808,0.3895,0.378,0.3785,0.3523,0.349,0.3757,0.3738,0.3913,0.3912,0.3911,0.391,0,0.2623,0.2672,0.2693,0.2751,0.2771,0.2796,0.2887,0.2928,0.306,0.3179,0.3241,0.3434,0.3601,0.3739,0.3914,0.3884,0.3952,0.3955,0.3632,0.3594,0.3792,0.3776,0.3921,0.3919,0.3917,0.3915,0.3914,0,0.2601,0.2631,0.2667,0.267,0.2693,0.274,0.2778,0.2902,0.2963,0.3171,0.3232,0.3448,0.3563,0.3768,0.3808,0.3895,0.3973,0.3643,0.3498,0.3809,0.38,0.3786,0.3772,0.3229,0.3223,0.3217,0.3213,0,0.2552,0.2585,0.2579,0.263,0.2645,0.2651,0.2721,0.2734,0.2913,0.3023,0.3153,0.3254,0.3479,0.3456,0.3602,0.3587,0.3597,0.3529,0.3979,0.3256,0.3165,0.3152,0.3161,0.3163,0.3168,0.3172,0.3175,0.3177,0.2478,0.2483,0.2525,0.254,0.2577,0.255,0.25,0.2611,0.2691,0.2816,0.2975,0.3059,0.3169,0.323,0.3165,0.3132,0.3366,0.321,0.3225,0.3246,0.3122,0.3031,0.2982,0.2986,0.2989,0.2992,0.2995,0,0.236,0.2409,0.2442,0.2432,0.2414,0.2498,0.2466,0.2387,0.2434,0.2632,0.2742,0.2576,0.2613,0.2728,0.26,0.2598,0.254,0.2493,0.2396,0.2449,0.2495,0.2329,0.1982,0.1978,0.1975,0.1972,0,0,0.231,0.2301,0.2336,0.2273,0.229,0.2209,0.2148,0.2086,0.2152,0.2169,0.2264,0.2504,0.2645,0.2282,0.2241,0.2089,0.2238,0.2002,0.2824,0.2763,0.2804,0.2931,0.2738,0,0,0,0,0]},{"header":{"parameterUnit":"m.s-1","parameterCategory":2,"la1":30.2991,"la2":30.254,"lo1":-89.0895,"lo2":-89.0444,"dy":0.0017,"dx":0.0017,"nx":28,"ny":28,"refTime":"2026-02-27T03:00:00:Z","depth":"2","parameterNumber":3,"parameterNumberName":"V-component_of_CURRENTS"},"data":[0,0,0,0,0,0,0,0,0,0,0,0,0,0,0,0,0,0,0,0,0,0,0,0,0,0,0,0,0,0,0,0,0,0,0,0,0,0,0,0,0,0,0,0,0,0,0,0,0,0,0,0,0,0,0,0,0,0,0.0096,0.0096,0,0.0067,0.0066,0.0066,0.0032,0.0032,0.0031,0.0031,-0.0022,-0.0023,-0.0025,0,0,0,0,0,0,0,0,0,0,0,0,0,0.006,0.0061,0.0096,0.0096,0.0095,0.0067,0.0066,0.0065,0.0032,0.0032,0.0031,0.0031,-0.0022,-0.0023,-0.0025,0,0,0,0,0,0,0,0,0,0,0,0,0,0.0056,0.0061,0.0096,0.0077,0.0075,0.0067,0.0066,0.0065,0.0032,0.0032,0.0031,0.0031,-0.0022,-0.0023,-0.0025,-0.0025,0,0,-0.003,-0.0031,0,0,0,0,0,0,0,0,0.0056,0.0057,0.008,0.0078,0.0076,0.0054,0.0034,0.0034,0.0032,0.0046,0.0031,0.003,0.0003,-0.0001,-0.0008,-0.0028,-0.003,-0.003,-0.0031,-0.0032,-0.0032,0,0,0,0,0,0,0,0.0057,0.0058,0.0082,0.008,0.0077,0.0048,0.0047,0.0033,0.0026,0.0045,0.0043,0.0043,0.0001,-0.0006,-0.0009,-0.0031,-0.003,-0.0032,-0.0033,-0.0033,-0.0059,-0.0059,0,0,0,0,0,0,0.0068,0.0059,0.0083,0.0082,0.0067,0.005,0.0049,0.006,0.0026,0.0021,0.0043,0.0042,-0.0003,-0.0007,-0.0011,-0.0007,-0.0032,-0.0033,-0.0034,-0.0059,-0.0059,-0.0059,0,0,0,0,0,0,0.0068,0.0071,0.0084,0.007,0.007,0.0051,0.0064,0.006,0.0051,0.0026,0.002,0.004,-0.0004,-0.0009,-0.0021,-0.001,-0.0034,-0.0036,-0.006,-0.0059,-0.0059,-0.0003,0,0,0,0,0,0,0.0067,0.0071,0.008,0.0071,0.0071,0.009,0.0065,0.006,0.0053,0.005,0.0021,0.0015,-0.0004,-0.0018,-0.0023,-0.0012,-0.0037,-0.006,-0.006,-0.0059,-0.0005,-0.0,0.0004,0,0,0,0,0,0.0066,0.0091,0.0081,0.0083,0.0085,0.0091,0.0089,0.0071,0.0054,0.0059,0.0034,0.0016,-0.0018,-0.0019,-0.0025,-0.0014,-0.0061,-0.006,-0.0059,-0.0007,-0.0001,0.0004,0,0,0,0,0,0,0.0082,0.009,0.0078,0.0104,0.0099,0.0087,0.0091,0.0075,0.0059,0.0052,0.0021,0.0014,0.0007,-0.0012,-0.0013,-0.0021,-0.0043,-0.0043,-0.0001,0.0004,0.0008,0.0025,-0.0038,0,0,0,0,0,0.0089,0.0108,0.0104,0.0122,0.0124,0.0104,0.0102,0.0091,0.0077,0.0069,0.005,0.0026,0.0007,-0.0001,-0.0018,-0.0021,-0.004,-0.0019,-0.0014,-0.0011,-0.0001,-0.0021,-0.0018,-0.0056,-0.0056,-0.0056,0,0,0.01,0.0106,0.0115,0.0126,0.0119,0.0136,0.0102,0.0106,0.0114,0.0066,0.0071,0.0041,0.0009,0.0005,0.0001,-0.0009,-0.001,-0.001,-0.0006,0.0002,-0.002,-0.0017,-0.0013,-0.0056,-0.0056,-0.0056,0,0,0.0136,0.0136,0.0163,0.0166,0.0165,0.0157,0.0161,0.0152,0.0141,0.0138,0.0104,0.0081,0.0059,0.0039,0.0024,0.0041,0.0013,0.0034,0.0072,0.0052,0.0055,0.0057,0.0039,0.004,0.0038,0.0038,0.0038,0,0.0147,0.0185,0.017,0.0196,0.0209,0.0172,0.0204,0.0189,0.0175,0.0171,0.0148,0.0107,0.0076,0.0066,0.0069,0.0052,0.0037,0.0056,0.0058,0.006,0.0062,0.0043,0.0043,0.0041,0.004,0.004,0.004,0,0.0204,0.0231,0.0248,0.0272,0.0279,0.0302,0.0285,0.0281,0.0258,0.0241,0.0223,0.0174,0.0153,0.0133,0.0105,0.0103,0.0087,0.0066,0.0048,0.007,0.0047,0.0046,0.0045,0.0044,0.0043,0.0042,0,0,0.0241,0.0283,0.0288,0.032,0.0325,0.0345,0.035,0.0354,0.0368,0.0322,0.0333,0.0276,0.0242,0.0222,0.0178,0.0152,0.0143,0.0119,0.0117,0.0108,0.0103,0.0064,0.0059,0.0123,0.0124,0.0124,0.0083,0,0.0292,0.0368,0.0368,0.0434,0.0476,0.0449,0.0465,0.0454,0.0435,0.0434,0.0357,0.0349,0.0277,0.027,0.023,0.017,0.0142,0.0156,0.0079,0.0077,0.0044,0.0057,0.0071,0.0034,0.0082,0.0082,0.0082,0,0.0347,0.0397,0.0477,0.0535,0.0549,0.0573,0.0602,0.0614,0.0581,0.0568,0.0526,0.0465,0.0411,0.035,0.025,0.0264,0.0192,0.0134,0.0131,0.0076,0.0036,0.0019,0.0029,0.0079,0.0079,0.008,0.008,0,0.0396,0.0472,0.0545,0.0565,0.0616,0.0639,0.066,0.0652,0.0689,0.0656,0.0674,0.0578,0.056,0.0441,0.0303,0.0283,0.0195,0.0153,0.0048,0.0045,0.0031,0.0026,0.0088,0.0088,0.0088,0.0088,0.0088,0,0.0458,0.0515,0.0576,0.0618,0.0706,0.0709,0.079,0.0787,0.0811,0.088,0.0753,0.078,0.0586,0.0497,0.0348,0.0199,0.0229,0.006,0.0033,0.005,0.0047,0.0066,0.0064,0.0087,0.0087,0.0087,0.0088,0,0.0499,0.0536,0.0627,0.0701,0.0733,0.0793,0.0895,0.0962,0.0958,0.1043,0.104,0.0951,0.0833,0.0623,0.0446,0.0286,0.0128,0.0069,0.0099,0.0074,-0.0023,-0.0022,-0.0058,-0.006,-0.0061,-0.0062,-0.0063,0,0.0533,0.058,0.0693,0.0763,0.0802,0.0902,0.0987,0.1033,0.1122,0.1163,0.1219,0.1112,0.1056,0.075,0.045,0.017,0.0142,0.0001,-0.0049,-0.0014,-0.0037,-0.0034,-0.0031,-0.0042,-0.0042,-0.0043,-0.0043,0,0.0591,0.0618,0.0697,0.0846,0.0952,0.109,0.1213,0.1313,0.1387,0.1437,0.1488,0.143,0.1123,0.0823,0.0424,0.023,0.0033,-0.0022,0.0023,-0.0012,-0.0004,-0.0025,-0.0022,-0.0049,-0.0048,-0.0048,-0.0048,-0.0047,0.0636,0.0691,0.0796,0.0942,0.1075,0.1265,0.1393,0.1531,0.1675,0.176,0.169,0.1593,0.1236,0.0707,0.0368,0.0004,0.0014,-0.0121,-0.0116,-0.0112,-0.0108,-0.0104,-0.0166,-0.0166,-0.0167,-0.0167,-0.0167,0,0.0712,0.0772,0.0897,0.1076,0.1242,0.1306,0.1539,0.1657,0.1837,0.1881,0.1875,0.1507,0.116,0.0764,0.0218,-0.0111,-0.0132,-0.0209,-0.0161,-0.0154,-0.0148,-0.0145,-0.0214,-0.0215,-0.0215,-0.0216,0,0,0.0753,0.0871,0.0932,0.1194,0.1329,0.1554,0.1699,0.1851,0.1925,0.1956,0.1882,0.1743,0.1257,0.0859,0.0411,0.0105,0.0055,0.0041,0.011,0.0225,0.0236,-0.0074,-0.0059,0,0,0,0,0]}],[{"header":{"parameterUnit":"m.s-1","parameterCategory":2,"la1":30.2991,"la2":30.254,"lo1":-89.0895,"lo2":-89.0444,"dy":0.0017,"dx":0.0017,"nx":28,"ny":28,"refTime":"2026-02-27T03:00:00:Z","depth":"4","parameterNumber":2,"parameterNumberName":"U-component_of_CURRENTS"},"data":[0,0,0,0,0,0,0,0,0,0,0,0,0,0,0,0,0,0,0,0,0,0,0,0,0,0,0,0,0,0,0,0,0,0,0,0,0,0,0,0,0,0,0,0,0,0,0,0,0,0,0,0,0,0,0,0,0,0,0.152,0.1521,0,0.1582,0.1583,0.1583,0.1612,0.1613,0.1613,0.1614,0.1674,0.1675,0.1676,0,0,0,0,0,0,0,0,0,0,0,0,0,0.1435,0.1436,0.152,0.1521,0.1523,0.1582,0.1583,0.1583,0.1612,0.1613,0.1613,0.1614,0.1674,0.1675,0.1676,0,0,0,0,0,0,0,0,0,0,0,0,0,0.1476,0.1436,0.152,0.1549,0.1552,0.1582,0.1583,0.1583,0.1612,0.1613,0.1614,0.1614,0.1673,0.1675,0.1676,0.1672,0,0,0.1682,0.1682,0,0,0,0,0,0,0,0,0.1474,0.1478,0.1543,0.1547,0.1551,0.1596,0.1575,0.1615,0.1612,0.1583,0.1614,0.1615,0.1651,0.1654,0.1656,0.1674,0.1677,0.1682,0.1683,0.1683,0.1684,0,0,0,0,0,0,0,0.1471,0.1476,0.1539,0.1545,0.155,0.1562,0.1568,0.1582,0.1607,0.1586,0.1589,0.1606,0.1652,0.1654,0.1658,0.1678,0.1682,0.1683,0.1684,0.1685,0.1802,0.1804,0,0,0,0,0,0,0.1474,0.1473,0.1537,0.1541,0.152,0.1564,0.157,0.1576,0.1607,0.1615,0.1605,0.1607,0.1651,0.1656,0.166,0.1749,0.1683,0.1685,0.1686,0.18,0.1802,0.1804,0,0,0,0,0,0,0.1472,0.1478,0.1534,0.1514,0.1523,0.1565,0.1571,0.1577,0.161,0.1623,0.1629,0.1636,0.1652,0.1658,0.1706,0.1748,0.1686,0.1687,0.1797,0.18,0.1803,0.1867,0,0,0,0,0,0,0.1469,0.1477,0.1495,0.1514,0.1524,0.1563,0.1571,0.1578,0.1619,0.1623,0.1651,0.1656,0.1653,0.1704,0.1708,0.1749,0.1689,0.1794,0.1799,0.1802,0.1862,0.1872,0.188,0,0,0,0,0,0.1465,0.1481,0.1495,0.1505,0.1543,0.1564,0.157,0.1599,0.1621,0.1632,0.1666,0.1657,0.1732,0.1707,0.1711,0.1754,0.1793,0.1797,0.1802,0.1858,0.187,0.188,0,0,0,0,0,0,0.1457,0.1487,0.1503,0.1529,0.1553,0.1572,0.1601,0.1617,0.1651,0.1673,0.1678,0.1685,0.1743,0.1742,0.1714,0.1801,0.1763,0.1768,0.1804,0.1815,0.1824,0.1829,0.169,0,0,0,0,0,0.1464,0.1485,0.1511,0.1536,0.1554,0.1584,0.1605,0.1624,0.1654,0.1671,0.1694,0.1728,0.176,0.1783,0.1803,0.1848,0.1852,0.1881,0.189,0.1898,0.1907,0.1953,0.1966,0.182,0.182,0.182,0,0,0.1469,0.1492,0.1504,0.1537,0.1565,0.1595,0.1597,0.164,0.1675,0.1672,0.1739,0.1759,0.1779,0.1831,0.1858,0.184,0.1942,0.1904,0.191,0.1915,0.1959,0.1973,0.1986,0.1823,0.1822,0.1822,0,0,0.1485,0.1512,0.1534,0.1557,0.1608,0.1626,0.1645,0.1684,0.1715,0.177,0.1786,0.1834,0.1878,0.1902,0.1919,0.1991,0.1986,0.2006,0.206,0.2104,0.2117,0.2127,0.2149,0.2161,0.2014,0.2014,0.2014,0,0.1495,0.1519,0.1545,0.1575,0.1601,0.1644,0.1672,0.1712,0.1764,0.1795,0.1803,0.1895,0.1911,0.1978,0.2011,0.2011,0.2031,0.2014,0.2115,0.2126,0.2136,0.2156,0.2168,0.2018,0.2017,0.2017,0.2016,0,0.1517,0.1549,0.1569,0.1619,0.1649,0.1681,0.1734,0.1782,0.183,0.1866,0.1948,0.1979,0.2032,0.2052,0.2058,0.2144,0.2133,0.2117,0.2084,0.2155,0.2171,0.2183,0.2023,0.2021,0.202,0.2019,0,0,0.1502,0.1567,0.1577,0.1599,0.1671,0.1689,0.1768,0.183,0.1884,0.1955,0.2016,0.2093,0.2123,0.2146,0.2165,0.2212,0.2301,0.2209,0.221,0.2223,0.2398,0.225,0.2248,0.231,0.2313,0.2315,0.238,0,0.1511,0.1551,0.1593,0.1643,0.1665,0.1729,0.1791,0.1863,0.1929,0.2003,0.207,0.2138,0.2158,0.2193,0.2252,0.2291,0.2337,0.2284,0.2334,0.2335,0.2189,0.2259,0.2323,0.2388,0.2391,0.2393,0.2394,0,0.1513,0.1538,0.1577,0.1641,0.166,0.1709,0.18,0.1863,0.1983,0.2042,0.2134,0.2184,0.2289,0.2278,0.2402,0.2375,0.2401,0.242,0.2422,0.2269,0.2209,0.2305,0.2416,0.2414,0.2412,0.2411,0.241,0,0.1458,0.1525,0.1548,0.157,0.1658,0.1702,0.1763,0.1877,0.1941,0.2073,0.2133,0.2253,0.2325,0.2393,0.2463,0.2446,0.2572,0.2539,0.2425,0.2414,0.2498,0.2485,0.2612,0.2612,0.2611,0.2611,0.2611,0,0.1427,0.145,0.1529,0.1542,0.159,0.167,0.175,0.1832,0.1959,0.2039,0.2157,0.2227,0.2365,0.2449,0.2489,0.2502,0.2599,0.2446,0.2427,0.2522,0.2512,0.2506,0.2492,0.2614,0.2613,0.2613,0.2612,0,0.1352,0.1408,0.1439,0.1529,0.1566,0.16,0.1736,0.1786,0.193,0.2035,0.2084,0.2245,0.2361,0.2463,0.2571,0.2517,0.2543,0.2516,0.2619,0.2603,0.2346,0.2335,0.2385,0.238,0.2377,0.2373,0.2371,0,0.1303,0.1314,0.1409,0.1427,0.1472,0.1548,0.1601,0.1758,0.182,0.2026,0.206,0.2221,0.2317,0.2358,0.2467,0.2522,0.2498,0.2471,0.2402,0.2349,0.2327,0.2322,0.2318,0.2365,0.2364,0.2363,0.2362,0,0.1206,0.1261,0.1287,0.133,0.1383,0.1433,0.1529,0.157,0.1753,0.1903,0.2003,0.207,0.219,0.2276,0.2339,0.2369,0.2466,0.243,0.2437,0.2372,0.2324,0.2305,0.2305,0.2348,0.235,0.2351,0.2352,0,0.1127,0.1137,0.1189,0.1216,0.1268,0.129,0.1364,0.1453,0.155,0.1797,0.1825,0.2009,0.2172,0.2197,0.2255,0.2279,0.2242,0.2148,0.2169,0.2185,0.2091,0.1999,0.1918,0,0,0,0,0,0.1033,0.1051,0.1066,0.1093,0.1131,0.1176,0.1297,0.1382,0.1579,0.1607,0.1722,0.1832,0.1931,0.2017,0.2007,0.215,0.2234,0.2123,0.2131,0.2274,0.229,0.2197,0,0,0,0,0,0,0.0976,0.1003,0.1031,0.0976,0.0973,0.1019,0.1095,0.1225,0.1265,0.1474,0.1549,0.1705,0.1838,0.1932,0.1969,0.1996,0.1958,0.2246,0.2241,0.2266,0.228,0.2292,0.2202,0,0,0,0,0]},{"header":{"parameterUnit":"m.s-1","parameterCategory":2,"la1":30.2991,"la2":30.254,"lo1":-89.0895,"lo2":-89.0444,"dy":0.0017,"dx":0.0017,"nx":28,"ny":28,"refTime":"2026-02-27T03:00:00:Z","depth":"4","parameterNumber":3,"parameterNumberName":"V-component_of_CURRENTS"},"data":[0,0,0,0,0,0,0,0,0,0,0,0,0,0,0,0,0,0,0,0,0,0,0,0,0,0,0,0,0,0,0,0,0,0,0,0,0,0,0,0,0,0,0,0,0,0,0,0,0,0,0,0,0,0,0,0,0,0,0.0137,0.0137,0,0.0121,0.0121,0.0121,0.0105,0.0105,0.0105,0.0105,0.0077,0.0076,0.0076,0,0,0,0,0,0,0,0,0,0,0,0,0,0.0105,0.0106,0.0137,0.0137,0.0137,0.0121,0.0121,0.012,0.0105,0.0105,0.0105,0.0105,0.0077,0.0077,0.0076,0,0,0,0,0,0,0,0,0,0,0,0,0,0.0107,0.0106,0.0137,0.0127,0.0126,0.0121,0.0121,0.012,0.0105,0.0105,0.0105,0.0105,0.0077,0.0077,0.0076,0.0075,0,0,0.0073,0.0073,0,0,0,0,0,0,0,0,0.0107,0.0108,0.0129,0.0128,0.0127,0.0115,0.0099,0.0105,0.0106,0.0113,0.0105,0.0105,0.0089,0.0087,0.0085,0.0074,0.0073,0.0073,0.0072,0.0072,0.0072,0,0,0,0,0,0,0,0.0107,0.0108,0.013,0.0129,0.0128,0.0107,0.0107,0.01,0.0102,0.0112,0.0111,0.011,0.0088,0.0085,0.0084,0.0072,0.0073,0.0072,0.0072,0.0071,0.0049,0.0049,0,0,0,0,0,0,0.0113,0.0109,0.0131,0.013,0.0116,0.0108,0.0108,0.0119,0.0103,0.01,0.011,0.0109,0.0087,0.0085,0.0083,0.0083,0.0072,0.0071,0.0071,0.0049,0.0049,0.0049,0,0,0,0,0,0,0.0112,0.0115,0.0132,0.0118,0.0119,0.0109,0.0121,0.0119,0.0117,0.0101,0.0098,0.0111,0.0087,0.0084,0.0077,0.0082,0.0071,0.007,0.0049,0.0049,0.0049,0.0083,0,0,0,0,0,0,0.0112,0.0115,0.0124,0.0119,0.012,0.0136,0.0121,0.0119,0.0117,0.0115,0.0101,0.0098,0.0086,0.0079,0.0076,0.0081,0.0069,0.0049,0.0049,0.0049,0.0082,0.0085,0.0086,0,0,0,0,0,0.0111,0.013,0.0125,0.0128,0.0133,0.0136,0.0135,0.0126,0.0117,0.0122,0.0107,0.0098,0.0076,0.0078,0.0075,0.008,0.0049,0.0049,0.0049,0.0081,0.0084,0.0086,0,0,0,0,0,0,0.0122,0.013,0.0125,0.0145,0.0142,0.0134,0.0138,0.0129,0.0121,0.0119,0.01,0.0097,0.0091,0.0079,0.0082,0.0071,0.006,0.0059,0.0085,0.0088,0.009,0.0096,0.0069,0,0,0,0,0,0.0129,0.0144,0.0142,0.0157,0.0158,0.0147,0.0146,0.014,0.0132,0.0129,0.0118,0.0103,0.0088,0.0084,0.0072,0.007,0.0045,0.0068,0.007,0.0072,0.0075,0.0043,0.0042,0.0048,0.0048,0.0048,0,0,0.0137,0.0142,0.0151,0.016,0.0156,0.0166,0.0146,0.0151,0.0155,0.0127,0.0131,0.0111,0.0088,0.0083,0.008,0.0076,0.0056,0.0072,0.0074,0.0075,0.0043,0.0042,0.0042,0.0048,0.0048,0.0048,0,0,0.016,0.0167,0.0185,0.0188,0.0188,0.0182,0.0185,0.018,0.0173,0.0172,0.0148,0.013,0.0119,0.0099,0.0087,0.0092,0.0067,0.009,0.0109,0.0078,0.0077,0.0076,0.0039,0.0034,0.0093,0.0093,0.0093,0,0.0168,0.0197,0.0189,0.0206,0.0217,0.0192,0.0215,0.0202,0.0194,0.0192,0.0179,0.0146,0.0124,0.0109,0.0107,0.0097,0.0075,0.0104,0.0081,0.008,0.0078,0.004,0.0035,0.0094,0.0094,0.0094,0.0094,0,0.0203,0.0228,0.024,0.0256,0.0262,0.0279,0.0265,0.0263,0.025,0.0236,0.0219,0.0182,0.0165,0.0149,0.0129,0.0109,0.0094,0.0086,0.0077,0.008,0.0039,0.0033,0.0097,0.0096,0.0096,0.0095,0,0,0.0223,0.026,0.0265,0.0292,0.0296,0.0311,0.0311,0.0311,0.0319,0.0285,0.0287,0.024,0.0215,0.0199,0.0166,0.0131,0.0092,0.0108,0.0106,0.0075,0.002,0.0002,-0.0007,0.0084,0.0083,0.0083,-0.0007,0,0.0256,0.0312,0.0315,0.0366,0.0398,0.0384,0.0392,0.0383,0.0366,0.0358,0.0296,0.0287,0.0235,0.0231,0.0184,0.012,0.0079,0.0117,0.0018,0.0015,0.0002,-0.0014,0.0081,-0.0011,-0.0013,-0.0014,-0.0015,0,0.0289,0.0328,0.039,0.0442,0.0454,0.0474,0.0497,0.0501,0.0467,0.0456,0.0417,0.0368,0.0306,0.0267,0.0146,0.0174,0.01,0.0041,0.0037,0.0005,-0.0014,-0.0015,-0.0026,-0.0025,-0.0025,-0.0024,-0.0023,0,0.032,0.0382,0.0441,0.0459,0.0503,0.0527,0.0544,0.0533,0.0553,0.0519,0.0525,0.0434,0.0402,0.0291,0.0154,0.0156,0.0016,0.0006,-0.0085,-0.0088,-0.0059,-0.0057,-0.008,-0.0079,-0.0079,-0.0079,-0.0079,0,0.036,0.0409,0.0466,0.0501,0.0573,0.0581,0.0641,0.0638,0.0644,0.0672,0.0583,0.0571,0.0408,0.0302,0.0173,0.0019,0.0028,-0.0089,-0.0113,-0.0044,-0.0039,-0.0064,-0.0061,-0.0082,-0.0082,-0.0081,-0.008,0,0.0389,0.0423,0.0497,0.0563,0.0593,0.0643,0.0721,0.0763,0.0755,0.0785,0.0779,0.0676,0.0533,0.0355,0.0169,0.0057,-0.0093,-0.0149,-0.007,-0.0087,-0.0182,-0.0176,-0.0256,-0.0257,-0.0258,-0.0259,-0.026,0,0.0413,0.0454,0.0548,0.06,0.0638,0.0719,0.0782,0.0817,0.0861,0.0845,0.086,0.0733,0.0638,0.0361,0.0167,-0.0091,-0.0127,-0.0206,-0.0196,-0.0185,-0.02,-0.0192,-0.0185,-0.0262,-0.0262,-0.0263,-0.0263,0,0.0455,0.0482,0.0543,0.0652,0.0735,0.0833,0.0917,0.0962,0.0992,0.0986,0.0928,0.077,0.0601,0.0365,0.0159,-0.0025,-0.0156,-0.0219,-0.0218,-0.0209,-0.0194,-0.0206,-0.0197,-0.0267,-0.0266,-0.0266,-0.0266,0,0.0486,0.0525,0.06,0.0697,0.0802,0.0908,0.0958,0.1009,0.105,0.1026,0.1,0.0806,0.069,0.0399,0.021,0.0021,-0.0025,-0.0079,-0.0086,-0.0084,-0.0015,0.0031,0.0003,0,0,0,0,0,0.0522,0.0561,0.0644,0.0747,0.0851,0.0921,0.103,0.107,0.1099,0.1073,0.1039,0.0876,0.058,0.0447,0.0256,0.0181,-0.0061,-0.0049,-0.0127,-0.029,-0.0285,-0.0235,0,0,0,0,0,0,0.0539,0.0614,0.0641,0.0769,0.0848,0.0977,0.1056,0.1086,0.1067,0.1053,0.0901,0.0817,0.0531,0.0681,0.0244,0.0186,0.0109,-0.019,-0.0194,-0.0292,-0.0288,-0.0284,-0.0232,0,0,0,0,0]}]]